EA3GYL La Torregassa ES current weather conditions

sailwx.info

Wind from 032 at 1 knots gusting 3

Air temperature 22.2° C
Dewpoint 20.1° C

Last reported at 2017-Jul-25 21:31 UTC.
Time now 2017-Jul-26 06:32 UTC

Location: N 41°17' E 001°31'.
View on Google Maps.

See reports from other nearby stations

  
Tides and Currents Weather Stations Pressure Air Temp Water Temp Dewpoint Dewpoint Depression Visibility Wind Speed Wind Dir Waves Ship Positions
date/time (UTC)wind fromknots sea level pressurealtimeterstation pressurevisibilityair tempwater tempwave heightnotes
2017-Jul-25 21:31 032 1 gusting 3 22.2
2017-Jul-25 21:22 023 1 gusting 2 22.2
2017-Jul-25 21:13 028 1 gusting 3 22.2
2017-Jul-25 21:04 042 0 gusting 3 22.2
2017-Jul-25 20:55 055 0 gusting 1 22.2
2017-Jul-25 20:46 055 0 gusting 1 22.8
2017-Jul-25 19:52 101 22.8
2017-Jul-25 19:43 100 0 gusting 2 23.3
2017-Jul-25 19:34 118 0 gusting 1 23.3
2017-Jul-25 19:25 124 1 gusting 3 23.3
2017-Jul-25 19:16 124 1 gusting 4 23.3
2017-Jul-25 19:07 116 0 gusting 4 23.3
2017-Jul-25 18:58 134 1 gusting 2 23.3
2017-Jul-25 18:49 142 1 gusting 5 23.3
2017-Jul-25 18:40 161 1 gusting 4 23.9
2017-Jul-25 18:31 168 1 gusting 4 23.9
2017-Jul-25 18:22 161 2 gusting 5 23.9
2017-Jul-25 18:13 143 2 gusting 5 23.9
2017-Jul-25 18:04 171 2 gusting 5 23.9
2017-Jul-25 17:55 156 1 gusting 5 24.4
2017-Jul-25 17:46 166 2 gusting 6 24.4
2017-Jul-25 17:37 136 3 gusting 8 24.4
2017-Jul-25 17:28 135 3 gusting 7 24.4
2017-Jul-25 17:19 161 3 gusting 6 24.4
2017-Jul-25 17:10 162 4 gusting 9 24.4
2017-Jul-25 17:01 158 4 gusting 9 25.0
2017-Jul-25 16:52 142 5 gusting 9 24.4
2017-Jul-25 16:43 138 5 gusting 9 25.0
2017-Jul-25 16:34 163 5 gusting 9 25.6
2017-Jul-25 16:25 158 5 gusting 9 25.6
2017-Jul-25 16:16 150 5 gusting 9 25.6
2017-Jul-25 16:07 151 6 gusting 12 26.1
2017-Jul-25 15:58 150 6 gusting 12 26.1
2017-Jul-25 15:49 164 6 gusting 13 26.1
2017-Jul-25 15:40 165 6 gusting 11 26.1
2017-Jul-25 15:31 164 6 gusting 11 26.1
2017-Jul-25 15:22 167 6 gusting 12 26.7
2017-Jul-25 15:13 159 6 gusting 13 26.7
2017-Jul-25 15:04 153 6 gusting 13 26.7
2017-Jul-25 14:55 149 6 gusting 13 26.7
2017-Jul-25 14:46 143 6 gusting 15 26.7
2017-Jul-25 14:37 152 6 gusting 13 27.2
2017-Jul-25 14:28 141 6 gusting 13 27.2
2017-Jul-25 14:19 156 6 gusting 13 27.2
2017-Jul-25 14:10 151 7 gusting 15 27.2
2017-Jul-25 14:01 157 6 gusting 14 27.2
2017-Jul-25 13:52 131 6 gusting 11 27.8
2017-Jul-25 12:25 174 6 gusting 14 27.2
2017-Jul-25 12:16 168 7 gusting 14 27.2
2017-Jul-25 12:07 148 6 gusting 14 27.2
2017-Jul-25 11:58 163 6 gusting 13 26.7
2017-Jul-25 11:49 211 5 gusting 7 27.2
2017-Jul-25 11:27 252 3 gusting 6 26.7
2017-Jul-25 11:18 213 2 gusting 8 27.2
2017-Jul-25 11:09 224 3 gusting 8 27.2
2017-Jul-25 11:00 213 3 gusting 8 27.2
2017-Jul-25 10:51 222 2 gusting 11 26.7
2017-Jul-25 10:42 254 3 gusting 6 26.7
2017-Jul-25 10:33 221 3 gusting 6 27.2
2017-Jul-25 10:24 233 2 gusting 7 27.2
2017-Jul-25 10:15 228 1 gusting 6 27.2
2017-Jul-25 10:06 197 1 gusting 4 27.2
2017-Jul-25 09:57 224 1 gusting 5 26.1
2017-Jul-25 09:48 231 1 gusting 5 25.0
2017-Jul-25 09:39 116 3 gusting 5 25.0
2017-Jul-25 09:30 106 2 gusting 6 25.0
2017-Jul-25 09:21 105 1 gusting 6 25.0
2017-Jul-25 09:12 113 1 gusting 3 24.4
2017-Jul-25 09:03 111 1 gusting 4 24.4
2017-Jul-25 08:54 126 1 gusting 3 24.4
2017-Jul-25 08:45 124 1 gusting 2 24.4
2017-Jul-25 07:44 128 22.2
2017-Jul-25 07:35 132 21.7
2017-Jul-25 07:26 21.7
2017-Jul-25 07:17 22.2
2017-Jul-25 07:08 21.7
2017-Jul-25 06:59 21.7
2017-Jul-24 23:07 052 0 gusting 6 23.3
2017-Jul-24 22:58 063 0 gusting 2 23.3
2017-Jul-24 22:49 312 2 gusting 6 23.9
2017-Jul-24 22:40 306 4 gusting 7 23.9
2017-Jul-24 22:31 297 4 gusting 9 24.4
2017-Jul-24 22:22 299 4 gusting 10 24.4
2017-Jul-24 22:13 307 4 gusting 9 24.4
2017-Jul-24 22:04 308 4 gusting 11 25.0
2017-Jul-24 21:55 307 4 gusting 11 25.0
2017-Jul-24 21:46 317 4 gusting 13 25.0
2017-Jul-24 21:37 305 5 gusting 9 25.6
2017-Jul-24 21:28 299 5 gusting 12 25.6
2017-Jul-24 21:19 295 5 gusting 9 25.6
2017-Jul-24 21:10 295 6 gusting 11 25.6
2017-Jul-24 21:01 294 6 gusting 13 25.6
2017-Jul-24 20:52 299 6 gusting 18 26.1
2017-Jul-24 20:43 256 6 gusting 10 26.1
2017-Jul-24 19:39 317 1 gusting 4 27.2
2017-Jul-24 19:30 338 3 gusting 7 27.8
2017-Jul-24 19:21 302 5 gusting 16 27.8
2017-Jul-24 19:12 288 6 gusting 15 27.8
2017-Jul-24 17:10 282 10 gusting 18 31.1
2017-Jul-24 17:01 283 9 gusting 17 31.1
2017-Jul-24 16:52 286 7 gusting 17 31.1
2017-Jul-24 16:43 285 6 gusting 15 31.7
2017-Jul-24 16:34 285 8 gusting 13 31.7
2017-Jul-24 16:25 283 7 gusting 18 31.7
2017-Jul-24 16:16 279 6 gusting 13 31.7
2017-Jul-24 16:07 284 6 gusting 13 31.7
2017-Jul-24 15:58 289 7 gusting 13 31.7
2017-Jul-24 15:49 281 8 gusting 14 31.7
2017-Jul-24 15:40 274 7 gusting 17 31.7
2017-Jul-24 15:31 280 7 gusting 13 31.7
2017-Jul-24 15:22 277 7 gusting 16 32.2
2017-Jul-24 15:13 269 7 gusting 14 32.2
2017-Jul-24 15:04 267 8 gusting 15 31.7
2017-Jul-24 14:55 258 7 gusting 17 31.7
2017-Jul-24 14:46 269 6 gusting 14 31.7
2017-Jul-24 14:37 277 7 gusting 14 31.7
2017-Jul-24 14:19 281 6 gusting 14 31.7
2017-Jul-24 14:10 282 7 gusting 13 31.7
2017-Jul-24 14:01 261 6 gusting 17 31.7
2017-Jul-24 13:52 276 6 gusting 16 31.1
2017-Jul-24 13:43 277 6 gusting 13 31.1
2017-Jul-24 13:34 293 7 gusting 17 31.1
2017-Jul-24 13:25 270 6 gusting 15 31.1
2017-Jul-24 13:14 281 8 gusting 16 30.6
2017-Jul-24 12:45 274 9 gusting 16 30.6
2017-Jul-24 12:36 275 7 gusting 18 30.0
2017-Jul-24 12:27 270 7 gusting 16 30.0
2017-Jul-24 12:18 278 7 gusting 15 29.4
2017-Jul-24 12:09 270 7 gusting 19 29.4
2017-Jul-24 12:00 276 6 gusting 16 29.4
2017-Jul-24 11:51 275 5 gusting 10 29.4
2017-Jul-24 11:42 270 6 gusting 13 28.9
2017-Jul-24 11:33 270 6 gusting 13 28.9
2017-Jul-24 11:24 287 6 gusting 15 28.9
2017-Jul-24 11:15 283 6 gusting 14 28.3
2017-Jul-24 11:06 299 6 gusting 13 28.3
2017-Jul-24 10:57 299 6 gusting 14 28.3
2017-Jul-24 10:48 289 6 gusting 19 27.8
2017-Jul-24 10:39 298 6 gusting 11 27.8
2017-Jul-24 10:30 287 5 gusting 20 27.8
2017-Jul-24 10:21 268 6 gusting 11 27.8
2017-Jul-24 10:12 266 6 gusting 14 27.2
2017-Jul-24 10:03 282 5 gusting 12 27.2
2017-Jul-24 09:54 264 5 gusting 10 26.7
2017-Jul-24 09:45 274 5 gusting 9 27.2
2017-Jul-24 09:36 262 6 gusting 13 26.7
2017-Jul-24 09:27 253 6 gusting 13 26.1
2017-Jul-24 09:18 274 7 gusting 14 26.1
2017-Jul-24 09:09 283 5 gusting 14 26.1
2017-Jul-24 09:00 299 3 gusting 7 26.1
2017-Jul-24 08:51 320 1 gusting 9 25.6
2017-Jul-24 08:42 070 1 gusting 5 25.6
2017-Jul-24 08:33 043 2 gusting 6 25.0
2017-Jul-24 08:24 013 2 gusting 8 25.0
2017-Jul-24 08:15 061 2 gusting 6 24.4
2017-Jul-24 08:06 066 1 gusting 6 24.4
2017-Jul-24 07:57 103 1 gusting 5 24.4
2017-Jul-24 07:48 117 2 gusting 4 23.3
2017-Jul-24 07:39 099 2 gusting 4 22.8
2017-Jul-24 07:30 096 1 gusting 6 22.2
2017-Jul-24 07:21 093 0 gusting 2 22.2
2017-Jul-24 07:12 090 1 gusting 3 21.7
2017-Jul-24 07:03 092 1 gusting 5 21.7
2017-Jul-24 06:55 21.7